Flag for Germany Weather past 2 weeks in Karlsruhe, Baden-Württemberg, Germany

Now
59 °F

Sunny.


Feels Like: 58 °F
Forecast: 49 / 67 °F
Wind: 8 mph from Southwest

Location: Karlsruhe - Baden Wurttemberg

Current Time: Apr 26, 2015 at 9:29:18 AM

Latest Report: Apr 26, 2015 at 8:50 AM


Visibility: 10 mi

Pressure: 29.83 "Hg

Humidity: 77%

Dew point: 52 °F

Location of KarlsruheLocation

Historic Weather in Karlsruhe — Graph

°F

Karlsruhe temperature yesterday

Maximum temperature yesterday: 64 °F (at 11:50 AM)
Minimum temperature yesterday: 43 °F (at 4:50 AM)
Average temperature yesterday: 57 °F

Past Weeks' High & Low Weather Summary

 TemperatureHumidityPressure
High79 °F (Apr 15, 3:50 PM)94% (Apr 12, 6:50 AM)30.45 "Hg (Apr 12, 6:50 AM)
Low36 °F (Apr 19, 6:50 AM)17% (Apr 15, 4:50 PM)29.83 "Hg (Apr 25, 4:50 AM)
Average57 °F52%30.15 "Hg
* Reported Apr 11 8:20 AM — Apr 26 8:20 AM, Karlsruhe, Weather by CustomWeather, © 2015

Note: Actual official high and low records may vary slightly from our data, if they occured in-between our weather recording intervals... More about our weather records

Advertising

Karlsruhe weather history for previous 24 hours

 ConditionsComfort  
Time TempWeatherWind HumidityBarometerVisibility
8:20 AM
Sun, Apr 26
55 °FSunny.6 mph88%29.83 "Hg10 mi
7:50 AM55 °FSunny.5 mph88%29.83 "Hg10 mi
7:20 AM54 °FSunny.5 mph88%29.83 "Hg10 mi
6:50 AM54 °FClear.7 mph88%29.83 "Hg10 mi
6:20 AM52 °FClear.5 mph94%29.83 "Hg10 mi
5:50 AM52 °FClear.6 mph88%29.83 "Hg10 mi
5:20 AM52 °FPassing clouds.7 mph88%29.83 "HgN/A
4:50 AM52 °FPartly cloudy.6 mph88%29.83 "Hg6 mi
11:20 PM
Sat, Apr 25
55 °FScattered showers. Passing clouds.5 mph88%29.86 "Hg4 mi
10:50 PM55 °FScattered showers. Partly cloudy.5 mph88%29.86 "Hg4 mi
10:20 PM55 °FScattered showers. Passing clouds.3 mph88%29.86 "Hg4 mi
9:50 PM55 °FLight rain. Passing clouds.6 mph88%29.86 "Hg4 mi
9:20 PM55 °FRain. Broken clouds.8 mph94%29.86 "Hg2 mi
8:52 PM57 °FRain showers. Fog.6 mph88%29.86 "Hg2 mi
8:20 PM57 °FScattered showers. Broken clouds.3 mph88%29.83 "Hg6 mi
7:50 PM57 °FSprinkles. Broken clouds.5 mph88%29.83 "Hg4 mi
7:20 PM57 °FSprinkles. Partly sunny.6 mph88%29.83 "Hg4 mi
6:50 PM59 °FRain showers. Partly sunny.9 mph82%29.83 "Hg4 mi
6:20 PM59 °FScattered showers. Partly sunny.8 mph82%29.83 "HgN/A
5:50 PM61 °FSprinkles. More clouds than sun.13 mph77%29.83 "HgN/A
5:20 PM61 °FScattered showers. Broken clouds.9 mph77%29.83 "HgN/A
4:50 PM59 °FSprinkles. Broken clouds.8 mph82%29.83 "HgN/A
4:20 PM59 °FSprinkles. Broken clouds.12 mph82%29.83 "HgN/A
3:50 PM59 °FSprinkles. Broken clouds.13 mph82%29.86 "Hg4 mi
3:20 PM61 °FSprinkles. Broken clouds.13 mph77%29.86 "Hg4 mi
2:50 PM63 °FScattered showers. Broken clouds.13 mph64%29.86 "HgN/A
2:20 PM63 °FSprinkles. Broken clouds.13 mph64%29.86 "HgN/A
1:50 PM63 °FSprinkles. Broken clouds.16 mph64%29.86 "HgN/A
1:20 PM63 °FSprinkles. Broken clouds.14 mph68%29.86 "HgN/A
12:50 PM63 °FSprinkles. Broken clouds.15 mph64%29.86 "HgN/A
12:20 PM64 °FSprinkles. Partly sunny.12 mph56%29.83 "HgN/A
11:50 AM64 °FPassing clouds.16 mph60%29.83 "HgN/A
11:20 AM63 °FSunny.17 mph59%29.86 "Hg10 mi
10:50 AM61 °FSunny.8 mph63%29.86 "Hg10 mi
10:20 AM57 °FPartly sunny.6 mph67%29.86 "HgN/A
9:50 AM55 °FDrizzle. Broken clouds.7 mph67%29.86 "HgN/A
9:20 AM55 °FPartly sunny.3 mph63%29.86 "HgN/A
Weather by CustomWeather, © 2015

See weather overviewHow to use our weather pages